EHI
0 0 0 0 0 0 0 0 0 0 0 0 0 0 0 0 0 0 0 0 0 0 0 0 0 0 0 0 0 0 0 0 0 0 0 0 0 0 0 0 0 0 0
0 0 0 0 0 0 0 0 0 0 0 0 0 0 0 0 0 0 0 0 0 0 0 0 0 0 0 0 0 0 0 0 0 0 0 0 0 0 0 0 0 0 0
0 0 0 0 0 0 0 0 0 0 0 0 0 0 0 0 0 0 0 0 0 0 0 0 0 0 0 0 0 0 0 0 0 0 0 0 0 0 0 0 0 0 0
0 0 0 0 0 0 0 0 0 0 0 0 0 0 0 0 0 0 0 0 0 0 0 0 0 0 0 0 0 0 0 0 0 0 0 0 0 0 0 0 0 0 0
0 0 0 0 0 0 0 0 0 0 0 0 0 0 0 0 0 0 0 0 0 0 0 0 0 0 0 0 0 0 0 0 0 0 0 0 0 0 0 0 0 0 0
0 0 0 0 0 0 0 0 0 0 0 0 0 0 0 0 0 0 0 0 0 0 0 0 0 0 0 0 0 0 0 0 0 0 0 0 0 0 0 0 0 0 0
0 0 0 0 0 0 0 0 0 0 0 0 0 0 0 0 0 0 0 0 0 0 0 0 0 0 0 0 0 0 0 0 0 0 0 0 0 0 0 0 0 0 0
0 0 0 0 0 0 0 0 0 0 0 0 0 0 0 0 0 0 0 0 0 0 0 0 0 0 0 0 0 0 0 0 0 0 0 0 0 0 0 0 0 0 0
0 0 0 0 0 0 0 0 0 0 0 0 0 0 0 0 0 0 0 0 0 0 0 0 0 0 0 0 0 0 0 0 0 0 0 0 0 0 0 0 0 0 0
0 0 0 0 0 0 0 0 0 0 0 0 0 0 0 0 0 0 0 0 0 0 0 0 0 0 0 0 0 0 0 0 0 0 0 0 0 0 0 0 0 0 0
0 0 0 0 0 0 0 0 0 0 0 0 0 0 0 0 0 0 0 0 0 0 0 0 0 0 0 0 0 0 0 0 0 0 0 0 0 0 0 0 0 0 0
0 0 0 0 0 0 0 0 0 0 0 0 0 0 0 0 0 0 0 0 0 0 0 0 0 0 0 0 0 0 0 0 0 0 0 0 0 0 0 0 0 0 0
0 0 0 0 0 0 0 0 0 0 0 0 0 0 0 0 0 0 0 0 0 0 0 0 0 0 0 0 0 0 0 0 0 0 0 0 0 0 0 0 0 0 0
0 0 0 0 0 0 0 0 0 0 0 0 0 0 0 0 0 0 0 0 0 0 0 0 0 0 0 0 0 0 0 0 0 0 0 0 0 0 0 0 0 0 0
0 0 0 0 0 0 0 0 0 0 0 0 0 0 0 0 0 0 0 0 0 0 0 0 0 0 0 0 0 0 0 0 0 0 0 0 0 0 0 0 0 0 0
0 0 0 0 0 0 0 0 0 0 0 0 0 0 0 0 0 0 0 0 0 0 0 0 0 0 0 0 0 0 0 0 0 0 0 0 0 0 0 0 0 0 0
0 0 0 0 0 0 0 0 0 0 0 0 0 0 0 0 0 0 0 0 0 0 0 0 0 0 0 0 0 0 0 0 0 0 0 0 0 0 0 0 0 0 0
0 0 0 0 0 0 0 0 0 0 0 0 0 0 0 0 0 0 0 0 0 0 0 0 0 0 0 0 0 0 0 0 0 0 0 0 0 0 0 0 0 0 0
0 0 0 0 0 0 0 0 0 0 0 0 0 0 0 0 0 0 0 0 0 0 0 0 0 0 0 0 0 0 0 0 0 0 0 0 0 0 0 0 0 0 0
0 0 0 0 0 0 0 0 0 0 0 0 0 0 0 0 0 0 0 0 0 0 0 0 0 0 0 0 0 0 0 0 0 0 0 0 0 0 0 0 0 0 0
0 0 0 0 0 0 0 0 0 0 0 0 0 0 0 0 0 0 0 0 0 0 0 0 0 0 0 0 0 0 0 0 0 0 0 0 0 0 0 0 0 0 0
0 0 0 0 0 0 0 0 0 0 0 0 0 0 0 0 0 0 0 0 0 0 0 0 0 0 0 0 0 0 0 0 0 0 0 0 0 0 0 0 0 0 0
0 0 0 0 0 0 0 0 0 0 0 0 0 0 0 0 0 0 0 0 0 0 0 0 0 0 0 0 0 0 0 0 0 0 0 0 0 0 0 0 0 0 0
0 0 0 0 0 0 0 0 0 0 0 0 0 0 0 0 0 0 0 0 0 0 0 0 0 0 0 0 0 0 0 0 0 0 0 0 0 0 0 0 0 0 0
0 0 0 0 0 0 0 0 0 0 0 0 0 0 0 0 0 0 0 0 0 0 0 0 0 0 0 0 0 0 0 0 0 0 0 0 0 0 0 0 0 0 0
0 0 0 0 0 0 0 0 0 0 0 0 0 0 0 0 0 0 0 0 0 0 0 0 0 0 0 0 0 0 0 0 0 0 0 0 0 0 0 0 0 0 0
Wind_Speed
8 8 6 6 6 5 6 5 5 5 5 4 4 3 3 3 3 2 3 5 4 2 2 2 2 3 3 4 4 5 5 6 7 8 8 9 9 10 11 11 12 12 13
8 7 7 7 6 6 5 5 5 5 4 4 4 4 3 3 3 2 2 4 3 3 2 1 2 2 2 3 3 4 5 6 7 7 8 9 10 10 11 12 12 12 13
9 8 7 7 6 6 6 5 5 4 4 4 4 4 3 3 3 3 2 2 2 3 1 2 2 2 3 3 4 4 5 6 7 8 8 9 10 11 12 12 13 13 14
11 9 7 7 7 6 6 5 5 5 4 4 4 3 3 3 3 3 3 2 2 2 2 1 2 2 3 4 5 5 6 6 7 8 9 10 10 11 12 13 13 14 14
12 10 8 7 8 7 6 6 5 5 5 4 3 3 3 3 3 3 4 3 2 2 2 2 1 2 3 4 5 6 7 7 8 9 10 10 11 12 13 13 14 14 15
13 11 8 9 9 7 7 7 7 5 4 4 3 3 3 3 3 4 4 3 3 3 3 2 2 2 1 3 5 7 8 8 9 10 10 11 12 13 13 14 14 15 16
14 12 9 10 9 8 9 9 7 7 5 4 4 4 4 5 5 4 4 4 4 4 3 3 3 2 2 2 4 6 8 9 10 11 11 12 13 13 14 14 15 15 16
14 12 12 10 10 8 10 10 9 6 5 5 5 4 4 5 5 4 4 4 4 4 4 4 3 3 3 2 1 4 8 10 11 12 12 13 13 14 14 15 16 16 16
15 14 14 12 11 10 9 10 10 10 7 7 6 4 3 3 3 4 5 4 4 4 4 4 4 4 4 3 3 3 6 9 11 12 13 13 14 15 15 15 16 17 17
15 15 14 14 12 10 10 11 11 9 9 7 6 5 4 2 3 2 4 4 4 4 4 3 4 4 4 3 3 5 6 8 10 12 13 14 15 15 15 15 16 16 17
15 15 15 14 13 11 12 12 11 11 9 8 6 5 5 4 5 4 3 4 4 4 4 4 3 3 3 3 3 4 6 8 10 11 13 14 14 15 15 16 16 17 17
12 16 15 14 13 12 12 12 12 13 10 10 8 6 6 5 5 5 5 5 4 3 4 4 4 3 3 3 3 4 6 7 9 11 12 13 13 14 15 16 16 17 18
12 16 16 15 13 13 12 12 12 12 12 12 10 8 7 6 4 5 5 5 5 3 4 4 4 3 3 3 2 4 6 7 9 10 11 12 12 13 14 15 16 17 17
13 16 17 16 15 15 13 12 11 11 10 11 11 10 7 7 6 5 5 4 5 4 5 5 3 4 3 3 2 4 4 6 8 9 10 11 12 12 13 14 15 15 16
12 16 17 16 16 15 15 13 10 12 11 11 11 11 8 6 6 6 5 5 5 5 5 4 3 3 2 2 2 3 4 5 7 8 9 10 11 12 13 13 14 15 16
15 16 17 17 16 15 15 14 11 12 12 11 8 10 10 7 6 6 5 5 5 6 5 3 2 2 2 2 3 4 4 5 6 8 9 10 11 12 12 13 14 14 15
16 16 17 17 16 16 16 14 14 13 13 12 11 11 11 9 7 6 5 5 5 5 7 4 3 2 3 3 3 4 4 4 4 6 8 9 10 11 11 12 13 13 13
16 16 16 16 16 16 16 16 15 15 14 14 13 12 12 9 10 7 6 7 6 6 6 6 4 3 4 3 4 4 3 4 5 5 8 9 10 10 10 11 11 12 13
16 16 16 16 16 16 16 16 15 15 14 14 13 13 12 12 11 8 8 7 5 5 5 4 4 2 2 2 3 4 4 4 4 5 6 8 9 9 10 10 11 11 12
16 16 16 16 16 16 15 15 14 14 13 12 12 12 12 12 11 10 8 8 6 5 5 4 4 3 2 2 3 3 4 4 4 4 5 6 7 8 8 9 9 10 12
15 15 15 15 15 14 13 15 15 14 13 12 11 11 10 11 10 9 7 7 7 6 4 4 3 3 3 2 2 2 4 4 4 3 5 4 4 4 5 5 7 10 11
15 15 15 15 15 12 15 18 15 13 13 12 11 10 10 10 10 11 10 9 9 7 7 5 4 4 4 3 2 2 3 4 3 2 4 5 4 5 4 4 7 10 11
14 15 15 15 15 15 17 19 18 13 12 12 12 10 8 8 11 9 10 9 8 7 6 6 5 5 4 3 3 3 3 4 4 4 4 5 4 5 5 5 7 9 11
12 13 14 14 14 14 18 20 19 14 11 11 11 11 11 10 10 10 9 8 7 6 6 5 4 3 2 2 3 2 2 3 4 2 2 4 5 6 6 5 5 8 11
11 11 11 13 13 13 18 20 18 11 9 10 9 10 10 10 13 14 10 8 7 4 3 4 3 3 3 3 2 1 1 1 2 2 1 3 4 6 6 5 4 8 10
9 9 9 11 12 12 17 20 20 10 9 8 8 8 11 12 15 16 11 9 8 6 6 5 5 4 3 3 3 2 2 2 2 2 0 2 3 4 5 4 5 6 7
Wind_Direction
173 169 170 169 172 167 169 168 171 163 166 163 163 168 164 161 157 148 118 70 33 33 68 74 66 52 51 40 30 24 16 9 5 0 357 354 351 348 344 342 340 338 337
175 175 173 173 174 176 173 177 174 170 169 171 172 177 178 172 177 176 154 128 81 39 29 36 39 25 17 11 10 4 357 353 351 348 345 343 341 340 338 336 335 332 331
180 180 180 178 177 177 178 180 173 179 172 175 182 184 186 193 194 191 181 188 157 121 61 15 5 354 347 342 345 345 343 341 342 340 336 333 332 332 329 329 328 326 324
185 184 184 184 178 176 181 181 182 185 183 190 189 184 192 190 208 203 195 197 207 194 152 93 356 338 331 330 329 332 332 330 331 330 328 325 324 323 322 322 322 321 320
188 189 190 186 181 181 184 184 192 193 190 192 196 198 204 202 201 206 209 204 208 221 226 138 127 340 327 322 324 323 323 322 321 320 319 318 316 316 316 316 316 315 316
191 193 192 190 186 187 188 190 190 195 199 192 194 209 215 210 214 217 219 212 209 215 230 234 222 192 268 311 317 318 316 317 317 316 315 313 312 311 311 312 312 313 313
192 194 192 191 191 194 194 195 191 192 195 192 200 208 212 216 222 218 221 221 211 214 223 229 242 254 226 236 292 309 312 313 314 314 313 312 311 309 310 311 311 310 311
195 195 196 193 193 196 196 196 193 195 189 194 209 211 212 200 202 212 213 219 224 211 218 224 233 241 262 266 301 301 308 309 310 311 311 311 310 309 309 309 309 311 312
198 197 199 197 195 198 198 196 195 198 193 192 210 221 227 219 175 179 198 209 212 213 218 220 230 240 255 265 276 273 296 302 307 309 309 309 309 308 308 309 310 311 311
200 200 200 200 198 200 200 198 200 200 200 195 198 226 251 280 238 197 184 197 209 223 223 217 228 233 243 253 265 296 299 298 303 305 307 307 307 307 309 311 311 312 312
202 201 201 200 200 201 202 198 197 200 203 204 196 195 211 224 243 248 233 203 205 212 221 227 230 234 239 249 263 292 294 295 301 304 306 306 308 308 310 312 312 312 312
199 202 201 200 201 201 202 200 199 201 203 206 204 201 200 200 207 218 238 241 236 214 215 224 231 234 238 252 263 297 289 293 299 303 306 307 308 309 310 311 312 311 311
197 199 198 201 200 201 200 198 199 202 205 206 207 208 213 220 210 215 234 247 252 237 222 225 226 232 234 250 259 280 273 288 297 302 304 305 307 308 309 310 311 311 312
199 197 198 200 201 199 198 198 199 201 203 206 210 210 211 215 211 213 224 236 250 244 230 227 211 221 232 249 288 265 273 281 295 299 301 305 307 307 308 309 311 312 313
198 196 196 199 200 199 198 196 201 199 201 206 208 209 211 210 209 214 219 224 234 253 253 227 216 209 229 253 268 267 279 293 293 296 300 304 307 309 310 311 311 311 313
196 195 195 197 197 197 197 197 199 201 200 202 203 206 208 207 204 205 207 214 226 241 256 250 231 223 227 255 275 278 285 303 287 296 301 305 310 311 312 313 312 312 313
197 196 195 195 195 196 196 197 200 198 201 201 199 204 207 205 200 198 198 205 214 223 244 252 245 245 249 261 268 277 289 293 292 295 301 305 309 311 312 314 314 315 317
199 198 195 194 195 196 196 197 199 200 201 202 201 202 206 201 203 197 197 204 209 215 230 247 243 240 252 267 282 287 296 296 297 302 302 304 308 310 312 314 318 319 319
199 198 196 195 196 196 197 198 199 200 202 203 201 202 203 199 201 199 198 201 204 206 219 234 248 251 257 269 285 289 293 294 299 302 295 299 304 308 309 314 319 322 321
199 198 197 197 197 196 196 196 197 198 199 202 202 202 202 200 201 197 196 198 195 196 204 219 235 243 252 271 280 291 292 295 299 298 300 305 303 299 302 310 318 321 321
199 198 197 197 197 196 195 192 193 194 195 196 198 200 200 197 196 191 187 189 188 191 194 207 221 231 236 247 265 282 288 302 298 298 310 307 306 304 306 306 313 322 321
197 196 198 197 197 197 189 186 187 189 191 192 192 194 192 189 188 185 183 182 183 189 193 198 212 223 236 243 257 270 288 302 295 323 313 305 308 305 309 312 326 322 321
195 197 198 198 200 196 183 182 184 187 189 190 189 186 184 185 185 186 183 179 186 193 198 202 209 220 230 228 230 249 266 285 289 320 314 296 309 306 313 312 315 316 322
195 197 198 198 199 194 180 181 179 188 188 189 188 187 184 181 182 179 175 180 190 196 202 208 214 219 214 205 212 238 260 279 288 287 305 287 307 310 312 302 302 315 320
193 195 195 195 197 190 178 176 173 185 186 185 185 185 183 181 174 170 171 174 177 176 163 163 154 138 130 148 167 179 216 272 278 274 291 290 302 312 304 296 309 314 314
190 187 191 195 193 189 176 173 174 180 181 179 177 180 183 181 172 171 177 176 179 177 160 151 152 153 156 156 178 200 210 244 275 275 314 299 301 321 306 299 313 314 312